map of EBFS home
Great Circle Mapper logo
EBFS - Airport
Location
City:  Florennes, Belgium
ICAO:EBFS

Details
Type:Airport (Aerodrome, Airfield)
Use:Military
Latitude:5014'36"N (50.243333)
Longitude:438'45"E (4.645833)
Elevation:935 ft (285 m)
Runways:2
Longest:11105 × 148 ft (3385 × 45 m), paved

Time
Time Zone:UTC+1 (DST+2)
Local Time:

Weather
METAR:EBFS 251725Z 20003KT 0500 FG FEW001 SCT033 10/10 Q1022 RED

Related Locations
Nearby:
Farthest:CHT: 11983 mi / 19284 km
Waitangi [Tuuta], Chatham Islands, NZ

Find:

   beyond  
but within

Other Information
Maps:
NOTAMs:
Links:
Sources:

  
flag of Belgium   

Sectional Chart

Flight Planning
at skyvector.com

Satellite Image

Google Maps Satellite View

 

Copyright © 2004-2014 Karl L. Swartz. All rights reserved.
The Great Circle Mapper name and logo are trademarks of the Great Circle Mapper.
All other trademarks mentioned herein belong to their respective owners.
Please see credits for attibutions and further copyright information.

  Follow gcmap on Facebook Follow gcmap on Twitter

hCard Microformat

Geo Microformat